Location: Litvinovka
(48.6667°N, 34.3500°E)
Time: 06:51:45
(UTC+00:00)

Cosmos 1766 - Pass Details

Date: 18 September 2020
Orbit: 522 x 543 km, 82.5° (Epoch: 19 October)

Event Time Altitude Azimuth Distance (km) Brightness Sun altitude
Exits shadow 17:58:45 32° 40° (NE) 936 4.3 -21.4°
Drops below altitude 10° 18:01:08 10° 20° (NNE) 1,801 6.0 -21.7°
Sets 18:03:21 0° 15° (NNE) 2,701 7.0 -22.0°
